| time (UTC) | temp F | wind direction | speed MPH | gust MPH | rain 1hr in | rain 24hr in | rain mn in | humidity % | barometer mb |
| 20260509151051 | 68 | 48 | 0.0 | 0.0 | 0.00 | 0.00 | 0.00 | 62 | 1009.2 |
| 20260509150548 | 67 | 117 | 0.0 | 0.0 | 0.00 | 0.00 | 0.00 | 63 | 1009.3 |
| 20260509150047 | 67 | 302 | 1.0 | 2.0 | 0.00 | 0.00 | 0.00 | 62 | 1008.9 |
| 20260509145542 | 66 | 291 | 1.0 | 1.0 | 0.00 | 0.00 | 0.00 | 64 | 1009.0 |
| 20260509145037 | 66 | 101 | 0.0 | 2.0 | 0.00 | 0.00 | 0.00 | 66 | 1008.9 |
| 20260509144534 | 66 | 346 | 0.0 | 1.0 | 0.00 | 0.00 | 0.00 | 66 | 1009.2 |
| 20260509144031 | 65 | 169 | 1.0 | 2.0 | 0.00 | 0.00 | 0.00 | 67 | 1009.0 |
| 20260509143529 | 65 | 102 | 0.0 | 0.0 | 0.00 | 0.00 | 0.00 | 67 | 1008.8 |
| 20260509143026 | 65 | 123 | 0.0 | 3.0 | 0.00 | 0.00 | 0.00 | 68 | 1008.8 |
| 20260509142521 | 65 | 134 | 0.0 | 0.0 | 0.00 | 0.00 | 0.00 | 67 | 1008.8 |
| 20260509142017 | 64 | 102 | 0.0 | 0.0 | 0.00 | 0.00 | 0.00 | 69 | 1008.9 |
| 20260509141514 | 64 | 158 | 0.0 | 0.0 | 0.00 | 0.00 | 0.00 | 70 | 1008.9 |
| 20260509141011 | 63 | 70 | 0.0 | 2.0 | 0.00 | 0.00 | 0.00 | 69 | 1009.0 |
| 20260509140507 | 63 | 35 | 0.0 | 1.0 | 0.00 | 0.00 | 0.00 | 70 | 1009.0 |
| 20260509140006 | 63 | 114 | 0.0 | 0.0 | 0.00 | 0.00 | 0.00 | 71 | 1008.8 |
| 20260509135502 | 62 | 214 | 1.0 | 1.0 | 0.00 | 0.00 | 0.00 | 72 | 1008.9 |
| 20260509134959 | 62 | 183 | 1.0 | 2.0 | 0.00 | 0.00 | 0.00 | 72 | 1009.0 |
| 20260509134457 | 61 | 181 | 0.0 | 2.0 | 0.00 | 0.00 | 0.00 | 73 | 1008.9 |
| 20260509133955 | 61 | 190 | 1.0 | 1.0 | 0.00 | 0.00 | 0.00 | 74 | 1008.8 |
| 20260509133451 | 60 | 133 | 1.0 | 3.0 | 0.00 | 0.00 | 0.00 | 77 | 1008.8 |
| 20260509132949 | 60 | 109 | 0.0 | 0.0 | 0.00 | 0.00 | 0.00 | 79 | 1008.8 |
| 20260509132447 | 59 | 107 | 0.0 | 0.0 | 0.00 | 0.00 | 0.00 | 80 | 1008.7 |
| 20260509131943 | 59 | 98 | 0.0 | 0.0 | 0.00 | 0.00 | 0.00 | 81 | 1009.0 |
| 20260509131441 | 59 | 70 | 0.0 | 0.0 | 0.00 | 0.00 | 0.00 | 79 | 1008.6 |
| 20260509130938 | 59 | 115 | 0.0 | 0.0 | 0.00 | 0.00 | 0.00 | 82 | 1008.7 |
| 20260509130433 | 58 | 103 | 0.0 | 0.0 | 0.00 | 0.00 | 0.00 | 84 | 1008.7 |
| 20260509125930 | 58 | 99 | 0.0 | 0.0 | 0.00 | 0.00 | 0.00 | 84 | 1008.7 |
| 20260509125427 | 58 | 163 | 1.0 | 1.0 | 0.00 | 0.00 | 0.00 | 83 | 1008.5 |
| 20260509124923 | 57 | 103 | 0.0 | 0.0 | 0.00 | 0.00 | 0.00 | 85 | 1008.4 |
| 20260509124420 | 57 | 95 | 0.0 | 0.0 | 0.00 | 0.00 | 0.00 | 86 | 1008.6 |
| 20260509123917 | 57 | 92 | 0.0 | 0.0 | 0.00 | 0.00 | 0.00 | 87 | 1008.3 |
| 20260509123414 | 56 | 94 | 0.0 | 0.0 | 0.00 | 0.00 | 0.00 | 89 | 1008.4 |
| 20260509122910 | 56 | 92 | 0.0 | 0.0 | 0.00 | 0.00 | 0.00 | 89 | 1008.5 |
| 20260509122407 | 56 | 92 | 0.0 | 0.0 | 0.00 | 0.00 | 0.00 | 91 | 1008.3 |
| 20260509121903 | 55 | 84 | 0.0 | 0.0 | 0.00 | 0.00 | 0.00 | 93 | 1008.5 |
| 20260509121401 | 55 | 81 | 0.0 | 0.0 | 0.00 | 0.00 | 0.00 | 94 | 1008.4 |
| 20260509120859 | 55 | 100 | 0.0 | 0.0 | 0.00 | 0.00 | 0.00 | 95 | 1008.2 |
| 20260509120356 | 54 | 81 | 0.0 | 0.0 | 0.00 | 0.00 | 0.00 | 97 | 1008.1 |
| 20260509115854 | 54 | 85 | 0.0 | 0.0 | 0.00 | 0.00 | 0.00 | 98 | 1008.2 |
| 20260509115351 | 53 | 75 | 0.0 | 0.0 | 0.00 | 0.00 | 0.00 | 99 | 1008.2 |
| 20260509114849 | 53 | 69 | 0.0 | 0.0 | 0.00 | 0.00 | 0.00 | 99 | 1008.0 |
| 20260509114347 | 52 | 71 | 0.0 | 0.0 | 0.00 | 0.00 | 0.00 | 99 | 1008.2 |
| 20260509113846 | 52 | 91 | 0.0 | 0.0 | 0.00 | 0.00 | 0.00 | 99 | 1008.0 |
| 20260509113343 | 52 | 89 | 0.0 | 0.0 | 0.00 | 0.00 | 0.00 | 99 | 1007.7 |
| 20260509112839 | 52 | 90 | 0.0 | 0.0 | 0.00 | 0.00 | 0.00 | 99 | 1008.1 |
| 20260509112337 | 52 | 90 | 0.0 | 0.0 | 0.00 | 0.00 | 0.00 | 99 | 1007.7 |
| 20260509111834 | 52 | 88 | 0.0 | 0.0 | 0.00 | 0.00 | 0.00 | 99 | 1007.7 |
| 20260509111331 | 52 | 87 | 0.0 | 0.0 | 0.00 | 0.00 | 0.00 | 99 | 1007.6 |
| 20260509110829 | 52 | 87 | 0.0 | 0.0 | 0.00 | 0.00 | 0.00 | 99 | 1007.6 |
| 20260509110324 | 53 | 94 | 0.0 | 0.0 | 0.00 | 0.00 | 0.00 | 99 | 1007.8 |
| 20260509105823 | 53 | 98 | 0.0 | 0.0 | 0.00 | 0.00 | 0.00 | 99 | 1007.7 |
| 20260509105321 | 53 | 63 | 0.0 | 0.0 | 0.00 | 0.00 | 0.00 | 99 | 1007.6 |
| 20260509104817 | 53 | 70 | 0.0 | 0.0 | 0.00 | 0.00 | 0.00 | 99 | 1007.7 |
| 20260509104314 | 53 | 71 | 0.0 | 0.0 | 0.00 | 0.00 | 0.00 | 99 | 1007.7 |
| 20260509103812 | 53 | 72 | 0.0 | 0.0 | 0.00 | 0.00 | 0.00 | 99 | 1007.7 |
| 20260509103309 | 53 | 71 | 0.0 | 0.0 | 0.00 | 0.00 | 0.00 | 99 | 1007.7 |
| 20260509102808 | 53 | 71 | 0.0 | 0.0 | 0.00 | 0.00 | 0.00 | 99 | 1007.7 |
| 20260509102306 | 53 | 72 | 0.0 | 0.0 | 0.00 | 0.00 | 0.00 | 99 | 1007.7 |
| 20260509101800 | 53 | 71 | 0.0 | 0.0 | 0.00 | 0.00 | 0.00 | 99 | 1007.6 |
| 20260509101256 | 53 | 71 | 0.0 | 0.0 | 0.00 | 0.00 | 0.00 | 99 | 1007.6 |
| 20260509100754 | 53 | 75 | 0.0 | 0.0 | 0.00 | 0.00 | 0.00 | 99 | 1007.7 |
| 20260509100251 | 54 | 75 | 0.0 | 0.0 | 0.00 | 0.00 | 0.00 | 99 | 1007.8 |
| 20260509095747 | 54 | 74 | 0.0 | 0.0 | 0.00 | 0.00 | 0.00 | 99 | 1007.6 |
| 20260509095246 | 54 | 79 | 0.0 | 0.0 | 0.00 | 0.00 | 0.00 | 99 | 1007.8 |
| 20260509094742 | 54 | 74 | 0.0 | 0.0 | 0.00 | 0.00 | 0.00 | 99 | 1007.6 |
| 20260509094239 | 54 | 75 | 0.0 | 0.0 | 0.00 | 0.00 | 0.00 | 99 | 1007.6 |
| 20260509093737 | 54 | 93 | 0.0 | 0.0 | 0.00 | 0.00 | 0.00 | 99 | 1007.8 |
| 20260509093234 | 54 | 92 | 0.0 | 0.0 | 0.00 | 0.00 | 0.00 | 99 | 1007.7 |
| 20260509092732 | 54 | 96 | 0.0 | 0.0 | 0.00 | 0.00 | 0.00 | 99 | 1007.7 |
| 20260509092230 | 54 | 101 | 0.0 | 0.0 | 0.00 | 0.00 | 0.00 | 99 | 1007.7 |
| 20260509091728 | 54 | 96 | 0.0 | 0.0 | 0.00 | 0.00 | 0.00 | 99 | 1007.7 |
| 20260509091223 | 54 | 96 | 0.0 | 0.0 | 0.00 | 0.00 | 0.00 | 99 | 1007.6 |
| 20260509090721 | 54 | 96 | 0.0 | 0.0 | 0.00 | 0.00 | 0.00 | 99 | 1007.5 |
| 20260509090218 | 54 | 96 | 0.0 | 0.0 | 0.00 | 0.00 | 0.00 | 99 | 1007.6 |
| 20260509085716 | 54 | 96 | 0.0 | 0.0 | 0.00 | 0.00 | 0.00 | 99 | 1007.3 |
| 20260509085213 | 54 | 96 | 0.0 | 0.0 | 0.00 | 0.00 | 0.00 | 99 | 1007.4 |
| 20260509084709 | 54 | 95 | 0.0 | 0.0 | 0.00 | 0.00 | 0.00 | 99 | 1007.7 |
| 20260509084207 | 54 | 95 | 0.0 | 0.0 | 0.00 | 0.00 | 0.00 | 99 | 1007.5 |
| 20260509083704 | 54 | 95 | 0.0 | 0.0 | 0.00 | 0.00 | 0.00 | 99 | 1007.5 |
| 20260509083200 | 54 | 95 | 0.0 | 0.0 | 0.00 | 0.00 | 0.00 | 99 | 1007.6 |
| 20260509082657 | 54 | 95 | 0.0 | 0.0 | 0.00 | 0.00 | 0.00 | 99 | 1007.5 |
| 20260509082154 | 54 | 95 | 0.0 | 0.0 | 0.00 | 0.00 | 0.00 | 99 | 1007.5 |
| 20260509081651 | 54 | 95 | 0.0 | 0.0 | 0.00 | 0.00 | 0.00 | 98 | 1007.4 |
| 20260509081148 | 54 | 95 | 0.0 | 0.0 | 0.00 | 0.00 | 0.00 | 98 | 1007.6 |
| 20260509080646 | 54 | 95 | 0.0 | 0.0 | 0.00 | 0.00 | 0.00 | 98 | 1007.6 |
| 20260509080144 | 55 | 95 | 0.0 | 0.0 | 0.00 | 0.00 | 0.00 | 98 | 1007.5 |
| 20260509075642 | 55 | 94 | 0.0 | 0.0 | 0.00 | 0.00 | 0.00 | 98 | 1007.5 |
| 20260509075139 | 55 | 94 | 0.0 | 0.0 | 0.00 | 0.00 | 0.00 | 98 | 1007.6 |
| 20260509074636 | 54 | 100 | 0.0 | 0.0 | 0.00 | 0.00 | 0.00 | 99 | 1007.5 |
| 20260509074132 | 55 | 100 | 0.0 | 0.0 | 0.00 | 0.00 | 0.00 | 99 | 1007.5 |
| 20260509073629 | 54 | 100 | 0.0 | 0.0 | 0.00 | 0.00 | 0.00 | 99 | 1007.5 |
| 20260509073125 | 54 | 100 | 0.0 | 0.0 | 0.00 | 0.00 | 0.00 | 99 | 1007.6 |
| 20260509072622 | 55 | 100 | 0.0 | 0.0 | 0.00 | 0.00 | 0.00 | 99 | 1007.4 |
| 20260509072119 | 55 | 100 | 0.0 | 0.0 | 0.00 | 0.00 | 0.00 | 99 | 1007.6 |
| 20260509071616 | 54 | 100 | 0.0 | 0.0 | 0.00 | 0.00 | 0.00 | 99 | 1007.6 |
| 20260509071113 | 54 | 100 | 0.0 | 0.0 | 0.00 | 0.00 | 0.00 | 99 | 1007.7 |
| 20260509070610 | 54 | 100 | 0.0 | 0.0 | 0.00 | 0.00 | 0.00 | 99 | 1007.7 |
| 20260509070106 | 55 | 100 | 0.0 | 0.0 | 0.00 | 0.00 | 0.00 | 99 | 1007.7 |
| 20260509065602 | 55 | 100 | 0.0 | 0.0 | 0.00 | 0.00 | 0.00 | 99 | 1007.6 |
| 20260509065058 | 55 | 100 | 0.0 | 0.0 | 0.00 | 0.00 | 0.00 | 99 | 1008.1 |
| 20260509064556 | 55 | 100 | 0.0 | 0.0 | 0.00 | 0.00 | 0.00 | 99 | 1008.1 |
| 20260509064054 | 55 | 100 | 0.0 | 0.0 | 0.00 | 0.00 | 0.00 | 99 | 1008.0 |
| 20260509063549 | 55 | 100 | 0.0 | 0.0 | 0.00 | 0.00 | 0.00 | 98 | 1008.2 |
| 20260509063047 | 55 | 100 | 0.0 | 0.0 | 0.00 | 0.00 | 0.00 | 98 | 1008.2 |
| 20260509062544 | 55 | 100 | 0.0 | 0.0 | 0.00 | 0.00 | 0.00 | 98 | 1008.1 |
| 20260509062041 | 55 | 100 | 0.0 | 0.0 | 0.00 | 0.00 | 0.00 | 98 | 1007.9 |
| 20260509061538 | 55 | 100 | 0.0 | 0.0 | 0.00 | 0.00 | 0.00 | 98 | 1008.4 |
| 20260509061035 | 55 | 100 | 0.0 | 0.0 | 0.00 | 0.00 | 0.00 | 98 | 1008.3 |
| 20260509060533 | 55 | 100 | 0.0 | 0.0 | 0.00 | 0.00 | 0.00 | 98 | 1008.1 |
| 20260509060023 | 55 | 99 | 0.0 | 0.0 | 0.00 | 0.00 | 0.00 | 98 | 1008.2 |
| 20260509055518 | 55 | 95 | 0.0 | 0.0 | 0.00 | 0.00 | 0.00 | 98 | 1008.1 |
| 20260509055015 | 55 | 94 | 0.0 | 0.0 | 0.00 | 0.00 | 0.00 | 98 | 1008.1 |
| 20260509054512 | 55 | 95 | 0.0 | 0.0 | 0.00 | 0.00 | 0.00 | 98 | 1008.2 |
| 20260509054010 | 55 | 95 | 0.0 | 0.0 | 0.00 | 0.00 | 0.00 | 98 | 1008.3 |
| 20260509053508 | 55 | 101 | 0.0 | 0.0 | 0.00 | 0.00 | 0.00 | 98 | 1008.1 |
| 20260509053005 | 55 | 96 | 0.0 | 0.0 | 0.00 | 0.00 | 0.00 | 99 | 1008.3 |
| 20260509052502 | 55 | 93 | 0.0 | 0.0 | 0.00 | 0.00 | 0.00 | 99 | 1008.2 |
| 20260509052000 | 55 | 90 | 0.0 | 0.0 | 0.00 | 0.00 | 0.00 | 99 | 1008.1 |
| 20260509051458 | 55 | 97 | 0.0 | 0.0 | 0.00 | 0.00 | 0.00 | 99 | 1008.1 |
| 20260509050954 | 55 | 90 | 0.0 | 0.0 | 0.00 | 0.00 | 0.00 | 99 | 1008.3 |
| 20260509050451 | 55 | 90 | 0.0 | 0.0 | 0.00 | 0.00 | 0.00 | 99 | 1008.3 |
| 20260509045948 | 55 | 90 | 0.0 | 0.0 | 0.00 | 0.13 | 0.13 | 99 | 1008.3 |
| 20260509045445 | 56 | 90 | 0.0 | 0.0 | 0.00 | 0.13 | 0.13 | 99 | 1008.2 |
| 20260509044942 | 56 | 90 | 0.0 | 0.0 | 0.00 | 0.13 | 0.13 | 99 | 1008.3 |
| 20260509044440 | 56 | 90 | 0.0 | 0.0 | 0.00 | 0.13 | 0.13 | 99 | 1008.2 |
| 20260509043937 | 56 | 90 | 0.0 | 0.0 | 0.00 | 0.13 | 0.13 | 99 | 1008.2 |
| 20260509043432 | 56 | 90 | 0.0 | 0.0 | 0.00 | 0.13 | 0.13 | 99 | 1008.1 |
| 20260509042928 | 56 | 90 | 0.0 | 0.0 | 0.00 | 0.13 | 0.13 | 99 | 1008.2 |
| 20260509042426 | 56 | 90 | 0.0 | 0.0 | 0.00 | 0.13 | 0.13 | 99 | 1008.4 |
| 20260509041922 | 56 | 90 | 0.0 | 0.0 | 0.00 | 0.13 | 0.13 | 99 | 1008.4 |
| 20260509041418 | 56 | 89 | 0.0 | 0.0 | 0.00 | 0.13 | 0.13 | 99 | 1008.5 |
| 20260509040917 | 56 | 89 | 0.0 | 0.0 | 0.00 | 0.13 | 0.13 | 99 | 1008.5 |
| 20260509040414 | 56 | 89 | 0.0 | 0.0 | 0.00 | 0.13 | 0.13 | 99 | 1008.4 |
| 20260509035911 | 56 | 89 | 0.0 | 0.0 | 0.00 | 0.13 | 0.13 | 99 | 1008.3 |
| 20260509035408 | 56 | 88 | 0.0 | 0.0 | 0.00 | 0.13 | 0.13 | 99 | 1008.5 |
| 20260509034904 | 56 | 89 | 0.0 | 0.0 | 0.00 | 0.13 | 0.13 | 99 | 1008.6 |
| 20260509034402 | 56 | 88 | 0.0 | 0.0 | 0.00 | 0.13 | 0.13 | 99 | 1008.5 |
| 20260509033859 | 57 | 89 | 0.0 | 0.0 | 0.00 | 0.13 | 0.13 | 99 | 1008.5 |
| 20260509033356 | 57 | 89 | 0.0 | 0.0 | 0.00 | 0.13 | 0.13 | 99 | 1008.7 |
| 20260509032852 | 57 | 88 | 0.0 | 0.0 | 0.00 | 0.13 | 0.13 | 99 | 1008.6 |
| 20260509032350 | 57 | 89 | 0.0 | 0.0 | 0.00 | 0.13 | 0.13 | 99 | 1008.4 |
| 20260509031848 | 56 | 85 | 0.0 | 0.0 | 0.00 | 0.13 | 0.13 | 99 | 1008.3 |
| 20260509031345 | 57 | 84 | 0.0 | 0.0 | 0.00 | 0.13 | 0.13 | 99 | 1008.4 |
| 20260509030842 | 57 | 84 | 0.0 | 0.0 | 0.00 | 0.13 | 0.13 | 99 | 1008.2 |
| 20260509030340 | 57 | 80 | 0.0 | 0.0 | 0.00 | 0.13 | 0.13 | 99 | 1008.0 |
| 20260509025836 | 57 | 88 | 0.0 | 0.0 | 0.00 | 0.13 | 0.13 | 99 | 1008.3 |
| 20260509025331 | 57 | 96 | 0.0 | 0.0 | 0.00 | 0.13 | 0.13 | 99 | 1008.3 |
| 20260509024827 | 57 | 45 | 0.0 | 0.0 | 0.00 | 0.13 | 0.13 | 99 | 1008.3 |
| 20260509024324 | 57 | 45 | 0.0 | 0.0 | 0.00 | 0.13 | 0.13 | 98 | 1008.0 |
| 20260509023821 | 57 | 45 | 0.0 | 0.0 | 0.00 | 0.13 | 0.13 | 98 | 1007.9 |
| 20260509023318 | 57 | 45 | 0.0 | 0.0 | 0.00 | 0.13 | 0.13 | 98 | 1008.0 |
| 20260509022814 | 57 | 45 | 0.0 | 0.0 | 0.00 | 0.13 | 0.13 | 98 | 1008.1 |
| 20260509022312 | 58 | 45 | 0.0 | 0.0 | 0.00 | 0.13 | 0.13 | 98 | 1007.8 |
| 20260509021808 | 58 | 45 | 0.0 | 0.0 | 0.00 | 0.13 | 0.13 | 98 | 1007.6 |
| 20260509021306 | 58 | 45 | 0.0 | 0.0 | 0.00 | 0.13 | 0.13 | 97 | 1007.6 |
| 20260509020803 | 58 | 45 | 0.0 | 0.0 | 0.00 | 0.13 | 0.13 | 97 | 1007.8 |
| 20260509020301 | 58 | 45 | 0.0 | 0.0 | 0.00 | 0.13 | 0.13 | 96 | 1007.8 |
| 20260509015758 | 58 | 45 | 0.0 | 0.0 | 0.00 | 0.13 | 0.13 | 96 | 1007.8 |
| 20260509015257 | 58 | 45 | 0.0 | 0.0 | 0.00 | 0.13 | 0.13 | 95 | 1007.9 |
| 20260509014753 | 58 | 45 | 0.0 | 0.0 | 0.00 | 0.13 | 0.13 | 96 | 1007.7 |
| 20260509014250 | 58 | 45 | 0.0 | 0.0 | 0.00 | 0.13 | 0.13 | 96 | 1007.7 |
| 20260509013746 | 58 | 45 | 0.0 | 0.0 | 0.00 | 0.13 | 0.13 | 96 | 1007.5 |
| 20260509013242 | 58 | 45 | 0.0 | 0.0 | 0.00 | 0.13 | 0.13 | 96 | 1007.5 |
| 20260509012739 | 59 | 45 | 0.0 | 0.0 | 0.00 | 0.13 | 0.13 | 95 | 1007.4 |
| 20260509012235 | 59 | 45 | 0.0 | 0.0 | 0.00 | 0.13 | 0.13 | 94 | 1007.3 |
| 20260509011733 | 59 | 45 | 0.0 | 0.0 | 0.00 | 0.13 | 0.13 | 94 | 1007.3 |
| 20260509011231 | 60 | 45 | 0.0 | 0.0 | 0.00 | 0.13 | 0.13 | 92 | 1007.2 |
| 20260509010728 | 60 | 45 | 0.0 | 0.0 | 0.00 | 0.13 | 0.13 | 90 | 1007.0 |
| 20260509010224 | 61 | 45 | 0.0 | 0.0 | 0.00 | 0.13 | 0.13 | 90 | 1007.3 |
| 20260509005722 | 61 | 45 | 0.0 | 0.0 | 0.00 | 0.13 | 0.13 | 89 | 1007.0 |
| 20260509005219 | 62 | 45 | 0.0 | 0.0 | 0.00 | 0.13 | 0.13 | 88 | 1007.3 |
| 20260509004713 | 62 | 45 | 0.0 | 0.0 | 0.00 | 0.13 | 0.13 | 88 | 1007.2 |
| 20260509004212 | 62 | 45 | 0.0 | 0.0 | 0.00 | 0.13 | 0.13 | 88 | 1007.0 |
| 20260509003709 | 62 | 45 | 0.0 | 0.0 | 0.00 | 0.13 | 0.13 | 86 | 1007.0 |
| 20260509003207 | 62 | 45 | 0.0 | 0.0 | 0.00 | 0.13 | 0.13 | 86 | 1007.2 |
| 20260509002704 | 62 | 42 | 0.0 | 0.0 | 0.00 | 0.13 | 0.13 | 87 | 1006.9 |
| 20260509002201 | 62 | 42 | 0.0 | 0.0 | 0.00 | 0.13 | 0.13 | 87 | 1006.8 |
| 20260509001659 | 62 | 45 | 0.0 | 0.0 | 0.00 | 0.13 | 0.13 | 86 | 1006.9 |
| 20260509001154 | 62 | 38 | 1.0 | 1.0 | 0.00 | 0.13 | 0.13 | 85 | 1006.7 |
| 20260509000652 | 62 | 41 | 1.0 | 1.0 | 0.00 | 0.13 | 0.13 | 84 | 1006.5 |
| 20260509000149 | 62 | 81 | 0.0 | 0.0 | 0.00 | 0.13 | 0.13 | 84 | 1006.5 |
| 20260508235647 | 62 | 99 | 0.0 | 0.0 | 0.00 | 0.13 | 0.13 | 84 | 1006.6 |
| 20260508235143 | 62 | 73 | 0.0 | 0.0 | 0.00 | 0.13 | 0.13 | 87 | 1006.6 |
| 20260508234641 | 62 | 43 | 0.0 | 1.0 | 0.00 | 0.13 | 0.13 | 86 | 1006.8 |
| 20260508234137 | 62 | 36 | 0.0 | 1.0 | 0.00 | 0.13 | 0.13 | 87 | 1007.0 |
| 20260508233636 | 62 | 46 | 0.0 | 0.0 | 0.00 | 0.13 | 0.13 | 88 | 1007.1 |
| 20260508233133 | 61 | 47 | 0.0 | 0.0 | 0.00 | 0.13 | 0.13 | 87 | 1007.0 |
| 20260508232630 | 61 | 36 | 1.0 | 2.0 | 0.00 | 0.13 | 0.13 | 87 | 1007.1 |
| 20260508232128 | 61 | 349 | 1.0 | 2.0 | 0.00 | 0.13 | 0.13 | 89 | 1007.1 |
| 20260508231625 | 61 | 47 | 1.0 | 1.0 | 0.00 | 0.13 | 0.13 | 90 | 1007.0 |
| 20260508231121 | 61 | 31 | 1.0 | 2.0 | 0.00 | 0.13 | 0.13 | 90 | 1007.1 |
| 20260508230618 | 60 | 50 | 0.0 | 1.0 | 0.00 | 0.13 | 0.13 | 92 | 1007.1 |
| 20260508230114 | 60 | 53 | 0.0 | 1.0 | 0.00 | 0.13 | 0.13 | 93 | 1006.9 |
| 20260508225613 | 61 | 36 | 0.0 | 0.0 | 0.00 | 0.13 | 0.13 | 92 | 1006.9 |
| 20260508225109 | 60 | 25 | 0.0 | 0.0 | 0.00 | 0.13 | 0.13 | 93 | 1006.8 |
| 20260508224607 | 60 | 28 | 0.0 | 0.0 | 0.00 | 0.13 | 0.13 | 95 | 1006.6 |
| 20260508224104 | 60 | 80 | 0.0 | 0.0 | 0.00 | 0.13 | 0.13 | 94 | 1006.6 |
| 20260508223602 | 59 | 69 | 0.0 | 0.0 | 0.00 | 0.13 | 0.13 | 96 | 1006.7 |
| 20260508223058 | 59 | 69 | 0.0 | 0.0 | 0.00 | 0.13 | 0.13 | 95 | 1006.4 |
| 20260508222556 | 59 | 76 | 0.0 | 0.0 | 0.00 | 0.13 | 0.13 | 95 | 1006.5 |
| 20260508222053 | 58 | 162 | 0.0 | 0.0 | 0.00 | 0.13 | 0.13 | 95 | 1006.5 |
| 20260508221549 | 58 | 113 | 0.0 | 0.0 | 0.00 | 0.13 | 0.13 | 97 | 1006.4 |
| 20260508221045 | 58 | 171 | 0.0 | 0.0 | 0.00 | 0.13 | 0.13 | 98 | 1006.4 |
| 20260508220542 | 58 | 72 | 0.0 | 0.0 | 0.07 | 0.13 | 0.13 | 99 | 1006.9 |
| 20260508220038 | 58 | 56 | 0.0 | 0.0 | 0.07 | 0.13 | 0.13 | 99 | 1007.3 |
| 20260508215535 | 57 | 72 | 0.0 | 0.0 | 0.12 | 0.12 | 0.12 | 98 | 1007.4 |
| 20260508215032 | 58 | 81 | 0.0 | 0.0 | 0.17 | 0.12 | 0.12 | 98 | 1007.5 |
| 20260508214529 | 58 | 98 | 0.0 | 0.0 | 0.05 | 0.10 | 0.10 | 98 | 1007.8 |
| 20260508214025 | 58 | 95 | 0.0 | 0.0 | 0.07 | 0.09 | 0.09 | 98 | 1008.1 |
| 20260508213523 | 58 | 44 | 0.0 | 0.0 | 0.12 | 0.08 | 0.08 | 97 | 1008.4 |
| 20260508213018 | 58 | 44 | 0.0 | 0.0 | 0.12 | 0.08 | 0.08 | 97 | 1008.3 |
| 20260508212515 | 58 | 43 | 0.0 | 0.0 | 0.00 | 0.06 | 0.06 | 96 | 1008.5 |
| 20260508212012 | 58 | 43 | 0.0 | 0.0 | 0.00 | 0.06 | 0.06 | 95 | 1008.6 |
| 20260508211507 | 59 | 43 | 0.0 | 0.0 | 0.07 | 0.06 | 0.06 | 95 | 1008.7 |
| 20260508211004 | 58 | 44 | 0.0 | 0.0 | 0.00 | 0.05 | 0.05 | 93 | 1008.7 |
| 20260508210500 | 58 | 44 | 0.0 | 0.0 | 0.05 | 0.05 | 0.05 | 93 | 1008.5 |
| 20260508205957 | 59 | 44 | 0.0 | 0.0 | 0.12 | 0.05 | 0.05 | 92 | 1008.5 |
| 20260508205454 | 59 | 44 | 0.0 | 1.0 | 0.19 | 0.04 | 0.04 | 90 | 1008.6 |
| 20260508204950 | 59 | 44 | 0.0 | 0.0 | 0.07 | 0.02 | 0.02 | 87 | 1008.6 |
| 20260508204448 | 60 | 44 | 0.0 | 0.0 | 0.05 | 0.01 | 0.01 | 85 | 1009.0 |
| 20260508203943 | 61 | 43 | 0.0 | 0.0 | 0.05 | 0.01 | 0.01 | 83 | 1008.9 |
| 20260508203439 | 61 | 48 | 0.0 | 0.0 | 0.00 | 0.00 | 0.00 | 83 | 1009.0 |
| 20260508202935 | 62 | 47 | 0.0 | 1.0 | 0.00 | 0.00 | 0.00 | 78 | 1008.5 |
| 20260508202433 | 62 | 48 | 0.0 | 1.0 | 0.00 | 0.00 | 0.00 | 77 | 1008.1 |
| 20260508201929 | 62 | 36 | 1.0 | 1.0 | 0.00 | 0.00 | 0.00 | 76 | 1008.3 |
| 20260508201426 | 63 | 34 | 1.0 | 1.0 | 0.00 | 0.00 | 0.00 | 74 | 1008.1 |
| 20260508200923 | 63 | 37 | 0.0 | 1.0 | 0.00 | 0.00 | 0.00 | 73 | 1008.4 |
| 20260508200420 | 64 | 43 | 0.0 | 1.0 | 0.00 | 0.00 | 0.00 | 70 | 1008.6 |
| 20260508195915 | 64 | 74 | 0.0 | 0.0 | 0.00 | 0.00 | 0.00 | 68 | 1008.5 |
| 20260508195413 | 64 | 75 | 0.0 | 0.0 | 0.00 | 0.00 | 0.00 | 67 | 1008.6 |
| 20260508194908 | 64 | 63 | 0.0 | 0.0 | 0.00 | 0.00 | 0.00 | 68 | 1008.8 |
| 20260508194406 | 64 | 52 | 0.0 | 0.0 | 0.00 | 0.00 | 0.00 | 67 | 1008.6 |
| 20260508193903 | 64 | 79 | 0.0 | 0.0 | 0.00 | 0.00 | 0.00 | 68 | 1008.9 |
| 20260508193359 | 64 | 89 | 0.0 | 0.0 | 0.00 | 0.00 | 0.00 | 65 | 1008.9 |
| 20260508192856 | 64 | 64 | 0.0 | 0.0 | 0.00 | 0.00 | 0.00 | 68 | 1008.2 |
| 20260508192353 | 64 | 74 | 0.0 | 0.0 | 0.00 | 0.00 | 0.00 | 67 | 1008.3 |
| 20260508191850 | 63 | 76 | 0.0 | 0.0 | 0.00 | 0.00 | 0.00 | 67 | 1007.9 |
| 20260508191347 | 63 | 71 | 0.0 | 0.0 | 0.00 | 0.00 | 0.00 | 70 | 1007.9 |
| 20260508190844 | 63 | 80 | 0.0 | 0.0 | 0.00 | 0.00 | 0.00 | 69 | 1008.3 |
| 20260508190341 | 63 | 134 | 0.0 | 0.0 | 0.00 | 0.00 | 0.00 | 70 | 1008.6 |
| 20260508185837 | 63 | 135 | 0.0 | 0.0 | 0.00 | 0.00 | 0.00 | 70 | 1008.8 |
| 20260508185335 | 63 | 100 | 0.0 | 0.0 | 0.00 | 0.00 | 0.00 | 70 | 1008.7 |
| 20260508184832 | 63 | 95 | 0.0 | 0.0 | 0.00 | 0.00 | 0.00 | 68 | 1008.5 |
| 20260508184329 | 63 | 69 | 0.0 | 0.0 | 0.00 | 0.00 | 0.00 | 67 | 1008.2 |
| 20260508183826 | 64 | 90 | 0.0 | 0.0 | 0.00 | 0.00 | 0.00 | 65 | 1007.9 |
| 20260508183322 | 64 | 88 | 0.0 | 0.0 | 0.00 | 0.00 | 0.00 | 66 | 1008.2 |
| 20260508182818 | 64 | 89 | 0.0 | 0.0 | 0.00 | 0.00 | 0.00 | 67 | 1008.5 |
| 20260508182315 | 64 | 82 | 0.0 | 0.0 | 0.00 | 0.00 | 0.00 | 66 | 1008.6 |
| 20260508181811 | 64 | 144 | 0.0 | 0.0 | 0.00 | 0.00 | 0.00 | 65 | 1008.7 |
| 20260508181308 | 64 | 94 | 0.0 | 0.0 | 0.00 | 0.00 | 0.00 | 67 | 1009.0 |
| 20260508180805 | 64 | 146 | 0.0 | 0.0 | 0.00 | 0.00 | 0.00 | 66 | 1008.8 |
| 20260508180302 | 64 | 112 | 0.0 | 0.0 | 0.00 | 0.00 | 0.00 | 66 | 1008.6 |
| 20260508175758 | 64 | 122 | 0.0 | 0.0 | 0.00 | 0.00 | 0.00 | 65 | 1008.6 |
| 20260508175254 | 64 | 58 | 0.0 | 0.0 | 0.00 | 0.00 | 0.00 | 63 | 1008.5 |
| 20260508174753 | 64 | 113 | 0.0 | 0.0 | 0.00 | 0.00 | 0.00 | 65 | 1008.8 |
| 20260508174250 | 64 | 53 | 0.0 | 1.0 | 0.00 | 0.00 | 0.00 | 66 | 1009.0 |
| 20260508173746 | 64 | 108 | 0.0 | 0.0 | 0.00 | 0.00 | 0.00 | 67 | 1008.6 |
| 20260508173242 | 64 | 79 | 0.0 | 0.0 | 0.00 | 0.00 | 0.00 | 66 | 1008.4 |
| 20260508172739 | 64 | 43 | 0.0 | 0.0 | 0.00 | 0.00 | 0.00 | 66 | 1008.7 |
| 20260508172236 | 63 | 52 | 0.0 | 1.0 | 0.00 | 0.00 | 0.00 | 67 | 1008.4 |
| 20260508171733 | 63 | 39 | 0.0 | 0.0 | 0.00 | 0.00 | 0.00 | 66 | 1008.5 |
| 20260508171228 | 63 | 44 | 0.0 | 0.0 | 0.00 | 0.00 | 0.00 | 67 | 1008.6 |
| 20260508170726 | 62 | 39 | 0.0 | 0.0 | 0.00 | 0.00 | 0.00 | 68 | 1008.5 |
| 20260508170223 | 62 | 57 | 0.0 | 0.0 | 0.00 | 0.00 | 0.00 | 69 | 1008.8 |
| 20260508165720 | 62 | 52 | 0.0 | 1.0 | 0.00 | 0.00 | 0.00 | 68 | 1009.7 |
| 20260508165217 | 62 | 58 | 0.0 | 1.0 | 0.00 | 0.00 | 0.00 | 69 | 1009.7 |
| 20260508164714 | 62 | 48 | 0.0 | 0.0 | 0.00 | 0.00 | 0.00 | 69 | 1010.0 |
| 20260508164210 | 62 | 289 | 0.0 | 2.0 | 0.00 | 0.00 | 0.00 | 68 | 1010.1 |
| 20260508163708 | 62 | 50 | 0.0 | 0.0 | 0.00 | 0.00 | 0.00 | 68 | 1009.8 |
| 20260508163206 | 62 | 102 | 0.0 | 1.0 | 0.00 | 0.00 | 0.00 | 68 | 1009.7 |
| 20260508162701 | 62 | 123 | 0.0 | 2.0 | 0.00 | 0.00 | 0.00 | 68 | 1009.7 |
| 20260508162158 | 62 | 49 | 0.0 | 0.0 | 0.00 | 0.00 | 0.00 | 67 | 1009.8 |
| 20260508161655 | 62 | 66 | 0.0 | 0.0 | 0.00 | 0.00 | 0.00 | 67 | 1009.7 |
| 20260508161153 | 62 | 104 | 0.0 | 0.0 | 0.00 | 0.00 | 0.00 | 67 | 1009.3 |
| 20260508160651 | 62 | 88 | 0.0 | 0.0 | 0.00 | 0.00 | 0.00 | 67 | 1009.3 |
| 20260508160148 | 62 | 86 | 0.0 | 0.0 | 0.00 | 0.00 | 0.00 | 66 | 1009.0 |
| 20260508155645 | 62 | 91 | 0.0 | 0.0 | 0.00 | 0.00 | 0.00 | 67 | 1009.3 |
| 20260508155142 | 62 | 87 | 0.0 | 1.0 | 0.00 | 0.00 | 0.00 | 67 | 1009.2 |
| 20260508154639 | 61 | 114 | 0.0 | 0.0 | 0.00 | 0.00 | 0.00 | 68 | 1009.2 |
| 20260508154136 | 61 | 114 | 0.0 | 0.0 | 0.00 | 0.00 | 0.00 | 68 | 1008.9 |
| 20260508153632 | 61 | 150 | 1.0 | 2.0 | 0.00 | 0.00 | 0.00 | 68 | 1008.9 |
| 20260508153129 | 61 | 126 | 0.0 | 1.0 | 0.00 | 0.00 | 0.00 | 68 | 1008.9 |
| 20260508152626 | 60 | 148 | 2.0 | 5.0 | 0.00 | 0.00 | 0.00 | 68 | 1008.8 |
| 20260508152121 | 60 | 207 | 2.0 | 2.0 | 0.00 | 0.00 | 0.00 | 68 | 1008.9 |
| 20260508151619 | 60 | 104 | 0.0 | 0.0 | 0.00 | 0.00 | 0.00 | 68 | 1009.3 |